カタログに戻る

STARLINK-5530

運用中通信VLEO
NORAD 56494·PAYLOAD·🇺🇸 United States

打ち上げ May 10, 2023 から Vandenberg Space Force Base

Loading…

次のパス (今後24時間)

TLE

最新Source: CelesTrak SupGP

元期: Sep 15, 2026, 02:37 UTC

1 56494C 23064AY  26258.10951389  .00067892  00000+0  56906-2 0  2589
2 56494  70.0016 346.8379 0003264 268.7693 190.2015 14.98289097    16

AllMySatでSTARLINK-5530をリアルタイム追跡

Download on the App Store